Location: Vesunti
(61.5000°N, 22.8333°E)
Time: 09:08:19
(UTC+00:00)

Cosmos 2344 - Pass Details

Date: 17 February 2020
Orbit: 1253 x 2989 km, 63.3° (Epoch: 09 April)

Event Time Altitude Azimuth Distance (km) Brightness Sun altitude
Exits shadow 03:09:47 29° 283° (WNW) 2,342 4.5 -21.7°
Maximum altitude 03:14:40 82° 9° (N) 1,577 4.0 -21.1°
Drops below altitude 10° 03:25:28 10° 98° (E) 4,409 7.4 -19.9°
Sets 03:29:19 0° 100° (E) 5,654 8.2 -19.4°
